User: anonymous   Login
Location: Unspecified
(0.0000°N, 0.0000°E)
Time: 07:56:54
(UTC+00:00)
Language:

COSMOS 2471 (GLONASS) - Orbit

View from above orbital plane
View from above orbital plane
View from above satellite
View from above satellite

Ground track
Ground track

The orbit data is extracted from the following two-line orbital elements,

1 37372U 11009A   17143.36231600 -.00000037 +00000-0 +00000-0 0  9991
2 37372 065.3910 065.4736 0007688 245.5305 065.0900 02.13107614048515
Epoch (UTC): 23 May 2017 08:41:44
Eccentricity: 0.0007688
inclination: 65.3910°
perigee height: 19109 km
apogee height: 19149 km
right ascension of ascending node: 65.4736°
argument of perigee: 245.5305°
revolutions per day: 2.13107614
mean anomaly at epoch: 65.0900°
orbit number at epoch: 4851

The dashed part of the orbit path shows where the satellite is in the earth's shadow,  

DLR